TimeEST,TemperatureF,Dew PointF,Humidity,Sea Level PressureIn,VisibilityMPH,Wind Direction,Wind SpeedMPH,Gust SpeedMPH,PrecipitationIn,Events,Conditions,WindDirDegrees,DateUTC
12:15 AM,57.2,57.2,100,30.18,5.0,NNE,5.8,-,N/A,,Overcast,20,2013-01-04 05:15:00
12:35 AM,57.2,57.2,100,30.17,8.0,NE,6.9,-,N/A,,Overcast,40,2013-01-04 05:35:00
12:55 AM,57.2,57.2,100,30.17,10.0,NE,6.9,-,N/A,,Overcast,40,2013-01-04 05:55:00
1:15 AM,57.2,57.2,100,30.17,9.0,NE,6.9,-,N/A,,Overcast,50,2013-01-04 06:15:00
1:35 AM,57.2,57.2,100,30.17,8.0,NNE,5.8,-,N/A,,Overcast,20,2013-01-04 06:35:00
1:55 AM,59.0,59.0,100,30.17,10.0,North,5.8,-,N/A,,Overcast,10,2013-01-04 06:55:00
2:15 AM,59.0,59.0,100,30.17,10.0,NNE,5.8,-,N/A,,Overcast,20,2013-01-04 07:15:00
2:35 AM,59.0,59.0,100,30.17,9.0,North,10.4,-,N/A,,Overcast,10,2013-01-04 07:35:00
2:55 AM,57.2,57.2,100,30.18,10.0,North,8.1,-,N/A,,Overcast,360,2013-01-04 07:55:00
3:35 AM,57.2,57.2,100,30.18,10.0,North,9.2,-,N/A,,Overcast,360,2013-01-04 08:35:00
4:15 AM,57.2,57.2,100,30.18,10.0,North,10.4,-,N/A,,Overcast,10,2013-01-04 09:15:00
7:15 AM,55.4,55.4,100,30.23,2.5,NNE,10.4,-,N/A,,Light Drizzle,20,2013-01-04 12:15:00
7:35 AM,55.4,55.4,100,30.24,5.0,NNE,8.1,-,N/A,,Overcast,20,2013-01-04 12:35:00
8:15 AM,55.4,55.4,100,30.24,9.0,NNE,8.1,-,N/A,,Overcast,20,2013-01-04 13:15:00
8:35 AM,55.4,55.4,100,30.26,10.0,NNE,9.2,-,N/A,,Overcast,20,2013-01-04 13:35:00
8:55 AM,55.4,55.4,100,30.26,10.0,NNE,9.2,-,N/A,,Overcast,30,2013-01-04 13:55:00
9:15 AM,55.4,55.4,100,30.27,10.0,NNE,10.4,-,N/A,,Overcast,20,2013-01-04 14:15:00
9:35 AM,55.4,55.4,100,30.27,10.0,NE,8.1,-,N/A,,Overcast,40,2013-01-04 14:35:00
9:55 AM,55.4,55.4,100,30.28,10.0,NNE,9.2,-,N/A,,Overcast,20,2013-01-04 14:55:00
10:15 AM,55.4,55.4,100,30.28,10.0,NNE,6.9,-,N/A,,Overcast,20,2013-01-04 15:15:00
10:35 AM,55.4,55.4,100,30.27,9.0,NNE,9.2,-,N/A,,Overcast,20,2013-01-04 15:35:00
10:55 AM,57.2,55.4,94,30.27,9.0,NNE,6.9,-,N/A,,Overcast,20,2013-01-04 15:55:00
11:15 AM,57.2,55.4,94,30.27,10.0,NE,5.8,-,N/A,,Overcast,40,2013-01-04 16:15:00
11:35 AM,57.2,55.4,94,30.26,10.0,NNE,8.1,-,N/A,,Overcast,30,2013-01-04 16:35:00
11:55 AM,59.0,55.4,88,30.26,10.0,NNE,9.2,-,N/A,,Overcast,20,2013-01-04 16:55:00
12:15 PM,59.0,55.4,88,30.25,10.0,NNE,5.8,-,N/A,,Overcast,30,2013-01-04 17:15:00
12:35 PM,60.8,55.4,82,30.24,10.0,NNE,8.1,-,N/A,,Overcast,30,2013-01-04 17:35:00
12:55 PM,60.8,55.4,82,30.23,10.0,North,5.8,-,N/A,,Overcast,10,2013-01-04 17:55:00
1:15 PM,60.8,55.4,82,30.22,10.0,NNE,5.8,-,N/A,,Overcast,20,2013-01-04 18:15:00
1:35 PM,60.8,57.2,88,30.22,10.0,NNE,5.8,-,N/A,,Overcast,30,2013-01-04 18:35:00
1:55 PM,60.8,55.4,82,30.21,10.0,North,6.9,-,N/A,,Overcast,360,2013-01-04 18:55:00
2:15 PM,60.8,57.2,88,30.21,10.0,NNE,8.1,-,N/A,,Overcast,20,2013-01-04 19:15:00
2:35 PM,60.8,57.2,88,30.21,9.0,NNE,8.1,-,N/A,,Overcast,30,2013-01-04 19:35:00
2:55 PM,60.8,57.2,88,30.21,10.0,North,8.1,-,N/A,,Overcast,10,2013-01-04 19:55:00
3:15 PM,60.8,57.2,88,30.21,9.0,North,6.9,-,N/A,,Overcast,10,2013-01-04 20:15:00
3:35 PM,60.8,57.2,88,30.21,9.0,North,8.1,-,N/A,,Overcast,360,2013-01-04 20:35:00
3:55 PM,59.0,57.2,94,30.22,10.0,North,9.2,-,N/A,,Overcast,360,2013-01-04 20:55:00
4:15 PM,59.0,57.2,94,30.22,9.0,North,5.8,-,N/A,,Overcast,10,2013-01-04 21:15:00
4:35 PM,59.0,57.2,94,30.23,10.0,North,5.8,-,N/A,,Overcast,10,2013-01-04 21:35:00
4:55 PM,59.0,57.2,94,30.24,10.0,North,8.1,-,N/A,,Overcast,360,2013-01-04 21:55:00
5:15 PM,59.0,57.2,94,30.25,10.0,North,8.1,-,N/A,,Overcast,350,2013-01-04 22:15:00
5:55 PM,57.2,57.2,100,30.25,4.0,NNW,6.9,-,N/A,,Overcast,340,2013-01-04 22:55:00
6:35 PM,57.2,57.2,100,30.27,5.0,North,5.8,-,N/A,,Overcast,350,2013-01-04 23:35:00
6:55 PM,57.2,57.2,100,30.27,5.0,North,5.8,-,N/A,,Overcast,360,2013-01-04 23:55:00
7:15 PM,57.2,57.2,100,30.27,6.0,North,6.9,-,N/A,,Overcast,360,2013-01-05 00:15:00
7:35 PM,57.2,57.2,100,30.28,7.0,North,5.8,-,N/A,,Overcast,350,2013-01-05 00:35:00
8:15 PM,57.2,57.2,100,30.29,10.0,North,4.6,-,N/A,,Overcast,10,2013-01-05 01:15:00
8:35 PM,57.2,57.2,100,30.29,9.0,North,6.9,-,N/A,,Overcast,360,2013-01-05 01:35:00
8:55 PM,57.2,57.2,100,30.29,9.0,North,6.9,-,N/A,,Overcast,360,2013-01-05 01:55:00
9:15 PM,57.2,57.2,100,30.29,10.0,NNE,5.8,-,N/A,,Overcast,20,2013-01-05 02:15:00
9:35 PM,57.2,57.2,100,30.30,10.0,North,9.2,-,N/A,,Overcast,10,2013-01-05 02:35:00
9:55 PM,57.2,57.2,100,30.29,9.0,North,8.1,-,N/A,,Overcast,10,2013-01-05 02:55:00
10:15 PM,57.2,57.2,100,30.29,10.0,NNE,8.1,-,N/A,,Overcast,20,2013-01-05 03:15:00
10:35 PM,57.2,57.2,100,30.28,10.0,NNE,5.8,-,N/A,,Overcast,30,2013-01-05 03:35:00
10:55 PM,57.2,57.2,100,30.28,10.0,NNE,6.9,-,N/A,,Overcast,20,2013-01-05 03:55:00
11:15 PM,57.2,57.2,100,30.28,9.0,NNE,6.9,-,N/A,,Overcast,30,2013-01-05 04:15:00
11:35 PM,57.2,57.2,100,30.28,8.0,North,6.9,-,N/A,,Overcast,360,2013-01-05 04:35:00
11:55 PM,57.2,57.2,100,30.28,7.0,NNE,8.1,-,N/A,,Overcast,20,2013-01-05 04:55:00